Weather History for KBWP - February, 2013

Change the Weather History Date:

Friday, February 1, 2013

  Actual Average (KFFM) Record (KFFM)
Temperature  
Mean Temperature -12 °F -  
Max Temperature 3 °F 18 °F 41 °F (1992)
Min Temperature -27 °F -2 °F -36 °F (1951)
Degree Days  
Heating Degree Days 77    
Moisture  
Dew Point -16 °F    
Average Humidity 75    
Maximum Humidity 85    
Minimum Humidity 63    
Precipitation  
Precipitation 0.00 in - - ()
Sea Level Pressure  
Sea Level Pressure 30.14 in    
Wind  
Wind Speed 7 mph (South)    
Max Wind Speed 17 mph    
Max Gust Speed 20 mph    
Visibility 8 miles    
Events      
Averages and records for this station are not official NWS values.
T = Trace of Precipitation, MM = Missing Value Source: NWS Daily Summary

Daily Weather History Graph

Daily Weather History Graph

Search for Another Location

Airport or City:

Trip Planner

Search our weather history database for the weather conditions in past years. The results will help you decide how hot, cold, wet, or windy it might be!

Date:

Astronomy

Feb. 01, 2013 Rise Set
Actual Time 7:48 AM CST 5:31 PM CST
Civil Twilight 7:16 AM CST 6:03 PM CST
Nautical Twilight 6:41 AM CST 6:39 PM CST
Astronomical Twilight 6:05 AM CST 7:14 PM CST
Moon No Moon Rise 10:00 AM CST (2/1)
Length of Visible Light 10h 46m
Length of Day
9h 42m
Waning Gibbous, 70% of the Moon is Illuminated
Feb 1
Waning Gibbous
Feb 3
Last Quarter
Feb 10
New
Feb 17
First Quarter
Feb 25
Full

Hourly Weather History & Observations

Time (CST) Temp. Windchill Dew Point Humidity Pressure Visibility Wind Dir Wind Speed Gust Speed Precip Events Conditions
12:15 AM -25.6 °F -41.9 °F -32.8 °F 69% 30.30 in 10.0 mi WSW 5.8 mph - N/A   Clear
12:35 AM -25.6 °F -39.8 °F -32.8 °F 69% 30.29 in 10.0 mi West 4.6 mph - N/A   Clear
12:55 AM -25.6 °F -45.4 °F -34.6 °F 63% 30.30 in 10.0 mi West 8.1 mph - N/A   Clear
1:15 AM -27.4 °F -45.9 °F -34.6 °F 69% 30.29 in 10.0 mi West 6.9 mph - N/A   Clear
1:35 AM -27.4 °F -47.6 °F -34.6 °F 69% 30.29 in 10.0 mi West 8.1 mph - N/A   Clear
1:55 AM -25.6 °F -41.9 °F -32.8 °F 69% 30.29 in 10.0 mi West 5.8 mph - N/A   Clear
2:15 AM -25.6 °F -41.9 °F -34.6 °F 63% 30.29 in 10.0 mi West 5.8 mph - N/A   Clear
2:35 AM -25.6 °F -39.8 °F -32.8 °F 69% 30.29 in 10.0 mi WNW 4.6 mph - N/A   Clear
2:55 AM -27.4 °F -41.9 °F -34.6 °F 69% 30.29 in 10.0 mi West 4.6 mph - N/A   Clear
3:15 AM -27.4 °F -45.9 °F -34.6 °F 69% 30.29 in 10.0 mi West 6.9 mph - N/A   Clear
3:35 AM -27.4 °F -41.9 °F -34.6 °F 69% 30.29 in 10.0 mi West 4.6 mph - N/A   Clear
4:15 AM -27.4 °F -45.9 °F -34.6 °F 69% 30.28 in 10.0 mi WSW 6.9 mph - N/A   Clear
4:35 AM -25.6 °F -37.1 °F -34.6 °F 63% 30.27 in 10.0 mi WSW 3.5 mph - N/A   Clear
4:55 AM -27.4 °F - -34.6 °F 69% 30.26 in 10.0 mi Calm Calm - N/A   Clear
5:15 AM -25.6 °F -37.1 °F -32.8 °F 69% 30.27 in 10.0 mi WSW 3.5 mph - N/A   Clear
5:35 AM -25.6 °F - -31.0 °F 76% 30.26 in 10.0 mi Calm Calm - N/A   Clear
6:15 AM -25.6 °F - -32.8 °F 69% 30.25 in 10.0 mi Calm Calm - N/A   Clear
6:35 AM -25.6 °F - -32.8 °F 69% 30.24 in 10.0 mi Calm Calm - N/A   Clear
6:55 AM -25.6 °F -37.1 °F -32.8 °F 69% 30.23 in 10.0 mi SE 3.5 mph - N/A   Clear
7:15 AM -27.4 °F -41.9 °F -34.6 °F 69% 30.22 in 10.0 mi ESE 4.6 mph - N/A   Clear
7:35 AM -27.4 °F -39.2 °F -34.6 °F 69% 30.22 in 10.0 mi SE 3.5 mph - N/A   Clear
7:55 AM -23.8 °F -37.7 °F -31.0 °F 69% 30.21 in 10.0 mi SE 4.6 mph - N/A   Clear
8:15 AM -25.6 °F -41.9 °F -32.8 °F 69% 30.19 in 10.0 mi SE 5.8 mph - N/A   Clear
8:35 AM -22.0 °F -37.7 °F -27.4 °F 76% 30.20 in 10.0 mi SSE 5.8 mph - N/A   Clear
9:15 AM -16.6 °F -29.3 °F -23.8 °F 70% 30.18 in 10.0 mi SSE 4.6 mph - N/A   Clear
9:35 AM -14.8 °F -30.8 °F -22.0 °F 70% 30.18 in 10.0 mi SSE 6.9 mph - N/A   Mostly Cloudy
9:55 AM -13.0 °F -28.6 °F -18.4 °F 77% 30.17 in 10.0 mi SSE 6.9 mph - N/A   Overcast
10:15 AM -11.2 °F -30.1 °F -16.6 °F 77% 30.16 in 10.0 mi SSE 10.4 mph - N/A   Mostly Cloudy
10:35 AM -9.4 °F -27.9 °F -14.8 °F 77% 30.16 in 10.0 mi SSE 10.4 mph - N/A   Overcast
10:55 AM -7.6 °F -26.6 °F -14.8 °F 71% 30.15 in 10.0 mi SSE 11.5 mph - N/A   Overcast
11:15 AM -7.6 °F -27.5 °F -14.8 °F 71% 30.14 in 10.0 mi SSE 12.7 mph - N/A   Overcast
11:35 AM -5.8 °F -26.0 °F -14.8 °F 65% 30.13 in 4.0 mi SSE 13.8 mph - N/A   Overcast
11:55 AM -5.8 °F -24.4 °F -13.0 °F 71% 30.12 in 2.5 mi SSE 11.5 mph - N/A   Overcast
12:15 PM -4.0 °F -23.7 °F -11.2 °F 71% 30.11 in 1.8 mi SSE 13.8 mph 17.3 mph N/A   Overcast
12:35 PM -4.0 °F -23.0 °F -9.4 °F 78% 30.10 in 2.0 mi SSE 12.7 mph - N/A   Overcast
12:55 PM -2.2 °F -21.5 °F -9.4 °F 71% 30.08 in 3.0 mi SSE 13.8 mph - N/A   Overcast
1:15 PM -2.2 °F -22.2 °F -9.4 °F 71% 30.06 in 1.8 mi SSE 15.0 mph - N/A   Overcast
1:35 PM -0.4 °F -21.2 °F -7.6 °F 72% 30.05 in 2.0 mi SSE 17.3 mph - N/A   Overcast
1:55 PM -0.4 °F -20.5 °F -7.6 °F 72% 30.05 in 5.0 mi SSE 16.1 mph - N/A   Overcast
2:15 PM -0.4 °F -19.2 °F -5.8 °F 78% 30.04 in 4.0 mi SSE 13.8 mph 19.6 mph N/A   Overcast
2:35 PM -0.4 °F -19.9 °F -5.8 °F 78% 30.03 in 2.0 mi SSE 15.0 mph - N/A   Overcast
2:55 PM 1.4 °F -16.1 °F -5.8 °F 72% 30.03 in 1.8 mi SE 12.7 mph - N/A   Overcast
3:15 PM 1.4 °F -15.3 °F -5.8 °F 72% 30.03 in 2.5 mi SSE 11.5 mph - N/A   Overcast
3:35 PM 1.4 °F -16.9 °F -4.0 °F 78% 30.02 in 4.0 mi SSE 13.8 mph - N/A   Overcast
3:55 PM 1.4 °F -16.9 °F -4.0 °F 78% 30.01 in 2.0 mi SSE 13.8 mph - N/A   Overcast
4:15 PM 1.4 °F -15.3 °F -4.0 °F 78% 30.02 in 3.0 mi SSE 11.5 mph - N/A   Overcast
4:35 PM 1.4 °F -15.3 °F -4.0 °F 78% 30.02 in 3.0 mi SSE 11.5 mph - N/A   Overcast
4:55 PM 1.4 °F -13.5 °F -4.0 °F 78% 30.03 in 7.0 mi SSE 9.2 mph - N/A   Overcast
5:15 PM 3.2 °F -10.3 °F -4.0 °F 72% 30.04 in 10.0 mi SSE 8.1 mph - N/A   Overcast
5:35 PM 3.2 °F -10.3 °F -2.2 °F 78% 30.03 in 7.0 mi SSE 8.1 mph - N/A   Overcast
5:55 PM 3.2 °F -11.3 °F -2.2 °F 78% 30.03 in 10.0 mi SSE 9.2 mph - N/A   Overcast
6:15 PM 3.2 °F -9.1 °F -0.4 °F 85% 30.04 in 10.0 mi SSE 6.9 mph - N/A   Overcast
6:35 PM 3.2 °F -9.1 °F -0.4 °F 85% 30.03 in 10.0 mi SSE 6.9 mph - N/A   Overcast
6:55 PM 3.2 °F -9.1 °F -0.4 °F 85% 30.04 in 10.0 mi SSE 6.9 mph - N/A   Overcast
7:15 PM 3.2 °F -6.2 °F -0.4 °F 85% 30.05 in 10.0 mi SE 4.6 mph - N/A   Overcast
7:35 PM 3.2 °F -6.2 °F -0.4 °F 85% 30.04 in 10.0 mi SSE 4.6 mph - N/A   Overcast
7:55 PM 3.2 °F -6.2 °F -0.4 °F 85% 30.04 in 10.0 mi SSE 4.6 mph - N/A   Overcast
8:15 PM 3.2 °F - -0.4 °F 85% 30.05 in 10.0 mi Calm Calm - N/A   Overcast
8:35 PM 3.2 °F - -0.4 °F 85% 30.05 in 7.0 mi Calm Calm - N/A   Overcast
8:55 PM 3.2 °F - -0.4 °F 85% 30.06 in 7.0 mi Calm Calm - N/A   Overcast
9:15 PM 3.2 °F - -0.4 °F 85% 30.06 in 7.0 mi Calm Calm - N/A   Overcast
9:35 PM 3.2 °F - -0.4 °F 85% 30.06 in 10.0 mi Calm Calm - N/A   Overcast
9:55 PM 3.2 °F - -0.4 °F 85% 30.07 in 10.0 mi Calm Calm - N/A   Mostly Cloudy
10:15 PM 3.2 °F - -0.4 °F 85% 30.08 in 7.0 mi Calm Calm - N/A   Scattered Clouds
10:35 PM 1.4 °F - -2.2 °F 85% 30.08 in 10.0 mi Calm Calm - N/A   Clear
10:55 PM 1.4 °F -6.2 °F -4.0 °F 78% 30.09 in 10.0 mi NNW 3.5 mph - N/A   Clear
11:15 PM -0.4 °F -10.4 °F -5.8 °F 78% 30.09 in 7.0 mi NNW 4.6 mph - N/A   Clear
11:35 PM -4.0 °F -16.3 °F -7.6 °F 85% 30.10 in 7.0 mi NNW 5.8 mph - N/A   Scattered Clouds
11:55 PM -5.8 °F -16.7 °F -9.4 °F 84% 30.11 in 7.0 mi NNW 4.6 mph - N/A   Mostly Cloudy